sat.trackr.live / text

‹ back to catalog

STARLINK-35247

NORAD 65622 · 2025-210A

PAYLOAD ACTIVE UNKNOWN

§ Identity

Operator
Country
US
Launch date
2025-09-18
Launch site
AFETR
Launch vehicle
Mass (kg)
RCS (m²)

Purposes: comms

External: N2YO · Heavens-Above · Gunter

§ Orbital elements

Epoch: 2026-05-24T22:33:44.208000Z

Period
94.10 min
Inclination
53.1594°
Eccentricity
0.0000828
Mean motion
15.30206750 rev/d
Perigee alt
474.6 km
Apogee alt
475.8 km
Semi-major
6,853.3 km
B*
6.2107e-4
RAAN
313.0307°
Arg perigee
79.2565°
Mean anomaly
280.8529°
Rev number
3,940

§ Raw data

STARLINK-352471 65622U 25210A   26144.94009500  .00018084  00000+0  62107-3 0  99942 65622  53.1594 313.0307 0000828  79.2565 280.8529 15.30206750 39408

JSON: /api/v1/satellites/65622 · /tle

For live sub-satellite position, see the globe view (requires WebGL).

§ Visibility from observer

Set your observer location to see the next 7 days of passes ≥ 10°. The values pass through the URL so the page stays shareable.

No JS? Fill the form by hand. The geolocation button needs JavaScript.